G6SGA Weather Reports


time (UTC)temp
F
wind
direction
speed
knots
gust
knots
rain 1hr
in
rain 24hr
in
rain mn
in
humidity
%
barometer
mb
20260508094711 57 142 2.6 5.2 0.00 0.00 0.00 53 1028.2
20260508094003 57 120 2.6 6.1 0.00 0.00 0.00 54 1028.2
20260508093503 58 129 2.6 6.1 0.00 0.00 0.00 53 1028.2
20260508093004 58 142 2.6 6.1 0.00 0.00 0.00 53 1028.2
20260508092503 58 138 2.6 6.1 0.00 0.00 0.00 51 1028.2
20260508092003 59 133 1.7 4.3 0.00 0.00 0.00 52 1028.2
20260508091504 59 150 1.7 6.1 0.00 0.00 0.00 50 1028.2
20260508091004 59 163 1.7 6.1 0.00 0.00 0.00 51 1028.2
20260508090503 58 152 1.7 5.2 0.00 0.00 0.00 52 1028.2
20260508090004 58 165 1.7 5.2 0.00 0.00 0.00 51 1028.2
20260508085504 57 174 2.6 6.1 0.00 0.00 0.00 57 1028.2
20260508085004 56 163 1.7 6.1 0.00 0.00 0.00 58 1028.2
20260508084504 56 161 1.7 4.3 0.00 0.00 0.00 60 1028.2
20260508084003 56 180 1.7 5.2 0.00 0.00 0.00 59 1028.2
20260508083503 56 185 1.7 5.2 0.00 0.00 0.00 59 1028.2
20260508083003 56 178 1.7 4.3 0.00 0.00 0.00 62 1028.2
20260508082503 55 174 1.7 4.3 0.00 0.00 0.00 62 1028.2
20260508082003 55 157 1.7 5.2 0.00 0.00 0.00 64 1028.2
20260508081504 54 145 1.7 5.2 0.00 0.00 0.00 65 1028.2
20260508081004 54 146 1.7 4.3 0.00 0.00 0.00 65 1028.2
20260508080503 54 140 1.7 5.2 0.00 0.00 0.00 68 1028.2
20260508080211 54 139 1.7 5.2 0.00 0.00 0.00 67 1028.2
20260508075711 53 145 1.7 4.3 0.00 0.00 0.00 68 1028.2
20260508075003 53 151 1.7 5.2 0.00 0.00 0.00 70 1028.2
20260508074503 52 156 1.7 7.0 0.00 0.00 0.00 71 1028.2
20260508074003 52 145 2.6 7.0 0.00 0.00 0.00 73 1028.2
20260508073711 52 142 2.6 7.0 0.00 0.00 0.00 73 1028.2
20260508073003 52 135 1.7 6.1 0.00 0.00 0.00 73 1028.2
20260508072503 52 138 1.7 5.2 0.00 0.00 0.00 74 1028.2
20260508072210 52 141 1.7 5.2 0.00 0.00 0.00 74 1028.2
20260508071503 51 146 1.7 5.2 0.00 0.00 0.00 75 1028.2
20260508071211 51 146 1.7 5.2 0.00 0.00 0.00 75 1028.2
20260508070504 51 150 1.7 4.3 0.00 0.00 0.00 76 1028.2
20260508070004 51 138 1.7 5.2 0.00 0.00 0.00 76 1028.2
20260508065503 51 136 2.6 5.2 0.00 0.00 0.00 77 1028.2
20260508065004 50 140 1.7 4.3 0.00 0.00 0.00 77 1028.2
20260508064711 50 137 1.7 3.5 0.00 0.00 0.00 77 1028.2
20260508064003 50 137 1.7 5.2 0.00 0.00 0.00 78 1028.2
20260508063503 50 137 1.7 3.5 0.00 0.00 0.00 78 1028.2
20260508063004 50 126 1.7 2.6 0.00 0.00 0.00 80 1028.2
20260508062504 49 129 1.7 2.6 0.00 0.00 0.00 83 1028.2
20260508062003 49 147 1.7 3.5 0.00 0.00 0.00 83 1028.2
20260508061503 49 145 1.7 3.5 0.00 0.00 0.00 85 1028.2
20260508061003 49 131 1.7 3.5 0.00 0.00 0.00 85 1028.2
20260508060503 49 133 1.7 3.5 0.00 0.00 0.00 86 1028.2
20260508060004 49 135 1.7 3.5 0.00 0.00 0.00 86 1028.2
20260508055504 49 129 1.7 3.5 0.00 0.00 0.00 86 1028.2
20260508055003 48 124 1.7 3.5 0.00 0.00 0.00 86 1028.2
20260508054503 48 119 1.7 3.5 0.00 0.00 0.00 86 1028.2
20260508054210 48 127 1.7 3.5 0.00 0.00 0.00 86 1028.2
20260508053711 48 126 1.7 2.6 0.00 0.00 0.00 87 1028.2
20260508053003 48 132 1.7 3.5 0.00 0.00 0.00 87 1028.2
20260508052504 48 135 1.7 3.5 0.00 0.00 0.00 87 1028.2
20260508052003 48 133 1.7 3.5 0.00 0.00 0.00 87 1028.2
20260508051503 48 136 1.7 3.5 0.00 0.00 0.00 87 1028.2
20260508051210 48 133 1.7 2.6 0.00 0.00 0.00 87 1028.2
20260508050711 48 129 1.7 3.5 0.00 0.00 0.00 87 1028.2
20260508050004 48 142 0.9 3.5 0.00 0.00 0.00 87 1028.2
20260508045711 48 138 0.9 2.6 0.00 0.00 0.00 87 1028.2
20260508045003 48 125 1.7 2.6 0.00 0.00 0.00 87 1028.2
20260508044503 48 122 1.7 3.5 0.00 0.00 0.00 86 1028.2
20260508044004 48 126 1.7 3.5 0.00 0.00 0.00 86 1028.2
20260508043503 48 135 1.7 3.5 0.00 0.00 0.00 86 1028.2
20260508043004 48 139 1.7 3.5 0.00 0.00 0.00 85 1028.2
20260508042711 48 137 1.7 3.5 0.00 0.00 0.00 85 1028.2
20260508042004 48 132 1.7 3.5 0.00 0.00 0.00 85 1028.2
20260508041711 48 131 1.7 3.5 0.00 0.00 0.00 85 1028.2
20260508041004 48 139 1.7 2.6 0.00 0.00 0.00 86 1028.2
20260508040711 48 127 1.7 4.3 0.00 0.00 0.00 86 1028.2
20260508040004 48 127 1.7 4.3 0.00 0.00 0.00 86 1028.2
20260508035503 48 135 1.7 3.5 0.00 0.00 0.00 86 1028.2
20260508035003 48 140 1.7 3.5 0.00 0.00 0.00 86 1028.2
20260508034503 48 135 1.7 3.5 0.00 0.00 0.00 86 1028.2
20260508034210 48 133 1.7 4.3 0.00 0.00 0.00 86 1028.2
20260508033503 48 128 1.7 4.3 0.00 0.00 0.00 86 1028.2
20260508033003 48 126 1.7 3.5 0.00 0.00 0.00 86 1028.2
20260508032711 48 126 1.7 3.5 0.00 0.00 0.00 86 1028.2
20260508032211 48 129 1.7 3.5 0.00 0.00 0.00 86 1028.2
20260508031711 48 133 1.7 3.5 0.00 0.00 0.00 86 1028.2
20260508031003 48 127 1.7 3.5 0.00 0.00 0.00 86 1028.2
20260508030504 48 134 1.7 3.5 0.00 0.00 0.00 86 1028.2
20260508030004 48 144 1.7 3.5 0.00 0.00 0.00 86 1028.2
20260508025503 48 139 1.7 3.5 0.00 0.00 0.00 86 1028.2
20260508025004 48 132 0.9 3.5 0.00 0.00 0.00 86 1028.2
20260508024503 48 134 1.7 4.3 0.00 0.00 0.00 86 1028.2
20260508024003 48 134 1.7 4.3 0.00 0.00 0.00 86 1028.2
20260508023503 48 131 1.7 4.3 0.00 0.00 0.00 86 1028.2
20260508023003 48 130 0.9 2.6 0.00 0.00 0.00 85 1028.2
20260508022504 48 136 0.9 2.6 0.00 0.00 0.00 85 1028.2
20260508022003 48 128 0.9 2.6 0.00 0.00 0.00 84 1028.2
20260508021503 48 119 0.9 3.5 0.00 0.00 0.00 84 1028.2
20260508021003 48 126 0.9 3.5 0.00 0.00 0.00 85 1028.2
20260508020504 48 133 0.9 1.7 0.00 0.00 0.00 84 1028.2
20260508020004 48 126 0.9 1.7 0.00 0.00 0.00 84 1028.2
20260508015504 48 144 0.0 1.7 0.00 0.00 0.00 84 1028.2
20260508015003 48 226 0.9 1.7 0.00 0.00 0.00 83 1028.2
20260508014504 48 208 0.9 2.6 0.00 0.00 0.00 83 1028.2
20260508014211 48 189 0.9 2.6 0.00 0.00 0.00 83 1028.2
20260508013504 48 220 0.9 1.7 0.00 0.00 0.00 84 1028.2
20260508013003 48 212 0.0 1.7 0.00 0.00 0.00 84 1028.2
20260508012503 48 187 0.0 1.7 0.00 0.00 0.00 84 1028.2
20260508012210 48 126 0.0 1.7 0.00 0.00 0.00 84 1028.2
20260508011503 48 215 0.9 1.7 0.00 0.00 0.00 84 1028.2
20260508011004 48 203 0.9 1.7 0.00 0.00 0.00 83 1028.2
20260508010711 48 192 0.9 1.7 0.00 0.00 0.00 83 1028.2
20260508010211 49 140 0.9 2.6 0.00 0.00 0.00 83 1028.2
20260508005503 49 126 0.9 3.5 0.00 0.00 0.00 83 1028.2
20260508005211 49 131 1.7 3.5 0.00 0.00 0.00 82 1028.2
20260508004503 49 135 1.7 3.5 0.00 0.00 0.00 82 1028.2
20260508004003 49 140 0.9 2.6 0.00 0.00 0.00 82 1028.2
20260508003711 49 146 0.9 2.6 0.00 0.00 0.00 82 1028.2
20260508003003 49 145 0.9 2.6 0.00 0.00 0.00 82 1028.2
20260508002503 49 137 0.9 2.6 0.00 0.00 0.00 82 1028.2
20260508002211 49 137 0.9 2.6 0.00 0.00 0.00 81 1028.2
20260508001503 49 146 0.9 2.6 0.00 0.00 0.00 81 1028.2
20260508001003 49 142 0.9 2.6 0.00 0.00 0.00 81 1028.2
20260508000503 49 146 0.9 2.6 0.00 0.00 0.00 81 1028.2
20260508000212 49 144 0.9 2.6 0.00 0.00 0.00 81 1028.2
20260507235713 49 149 0.9 1.7 0.00 0.00 0.00 81 1028.2
20260507235211 49 121 0.9 1.7 0.00 0.00 0.00 81 1028.2
20260507234503 50 150 0.9 2.6 0.00 0.00 0.00 80 1028.2
20260507234211 50 150 0.9 2.6 0.00 0.00 0.00 80 1028.2
20260507233503 50 153 0.9 2.6 0.00 0.00 0.00 80 1028.2
20260507233003 50 199 0.9 2.6 0.00 0.00 0.00 79 1028.2
20260507232503 50 206 0.9 2.6 0.00 0.00 0.00 79 1028.2
20260507232004 50 220 0.9 3.5 0.00 0.00 0.00 79 1028.2
20260507231503 50 193 0.9 3.5 0.00 0.00 0.00 78 1028.2
20260507231003 50 201 0.9 3.5 0.00 0.00 0.00 78 1028.2
20260507230503 50 229 0.9 3.5 0.00 0.00 0.00 78 1028.2
20260507230006 50 212 0.9 3.5 0.00 0.00 0.00 78 1028.2
20260507225503 50 176 0.9 2.6 0.00 0.00 0.00 78 1028.2
20260507225003 50 191 0.9 2.6 0.00 0.00 0.00 78 1028.2
20260507224504 50 188 0.9 3.5 0.00 0.00 0.00 77 1028.2
20260507224004 50 150 0.9 3.5 0.00 0.00 0.00 77 1028.2
20260507223503 50 172 0.9 2.6 0.00 0.00 0.00 77 1028.2
20260507223004 51 175 0.9 2.6 0.00 0.00 0.00 76 1028.2
20260507222710 51 147 0.9 2.6 0.00 0.00 0.00 76 1028.2
20260507222210 51 134 1.7 5.2 0.00 0.00 0.00 76 1028.2
20260507221503 51 134 0.9 3.5 0.00 0.00 0.00 75 1028.2
20260507221003 51 136 0.9 2.6 0.00 0.00 0.00 75 1028.2
20260507220503 51 185 0.9 2.6 0.00 0.00 0.00 75 1028.2
20260507220004 51 209 0.9 2.6 0.00 0.00 0.00 75 1028.2
20260507215503 51 212 0.9 2.6 0.00 0.00 0.00 75 1028.2
20260507215003 51 220 0.9 2.6 0.00 0.00 0.00 75 1028.2
20260507214503 51 201 0.0 1.7 0.00 0.00 0.00 75 1028.2
20260507214003 51 201 0.9 2.6 0.00 0.00 0.00 75 1028.2
20260507213711 51 219 0.9 2.6 0.00 0.00 0.00 74 1028.2
20260507213003 51 234 0.9 2.6 0.00 0.00 0.00 74 1028.2
20260507212503 51 251 0.0 1.7 0.00 0.00 0.00 74 1028.2
20260507212003 51 166 0.0 2.6 0.00 0.00 0.00 74 1028.2
20260507211711 51 145 0.9 2.6 0.00 0.00 0.00 74 1028.2
20260507211008 51 134 0.9 2.6 0.00 0.00 0.00 74 1028.2
20260507210503 51 142 0.9 2.6 0.00 0.00 0.00 73 1028.2
20260507210004 51 144 0.9 2.6 0.00 0.00 0.00 73 1028.2
20260507205503 51 137 0.9 2.6 0.00 0.00 0.00 73 1028.2
20260507205003 51 138 0.9 2.6 0.00 0.00 0.00 73 1028.2
20260507204503 51 139 0.9 3.5 0.00 0.00 0.00 73 1028.2
20260507204003 52 133 0.9 3.5 0.00 0.00 0.00 73 1028.2
20260507203503 52 127 0.9 2.6 0.00 0.00 0.00 73 1028.2
20260507203210 52 125 0.9 2.6 0.00 0.00 0.00 73 1028.2
20260507202503 52 143 0.9 3.5 0.00 0.00 0.00 73 1028.2
20260507202004 52 164 0.9 2.6 0.00 0.00 0.00 73 1028.2
20260507201503 52 162 0.9 2.6 0.00 0.00 0.00 73 1028.2
20260507201003 52 140 0.9 2.6 0.00 0.00 0.00 73 1028.2
20260507200503 52 151 0.9 4.3 0.00 0.00 0.00 73 1028.2
20260507200004 52 161 0.9 4.3 0.00 0.00 0.00 73 1028.2
20260507195504 51 155 0.9 2.6 0.00 0.00 0.00 74 1028.2
20260507195004 51 152 0.9 1.7 0.00 0.00 0.00 75 1028.2
20260507194503 52 156 0.9 1.7 0.00 0.00 0.00 75 1028.2
20260507194004 52 142 0.9 3.5 0.00 0.00 0.00 75 1028.2
20260507193503 52 136 1.7 4.3 0.00 0.00 0.00 75 1028.2
20260507193003 52 137 1.7 4.3 0.00 0.00 0.00 75 1028.2
20260507192503 52 142 0.9 3.5 0.00 0.00 0.00 75 1028.2
20260507192003 52 178 0.9 2.6 0.00 0.00 0.00 76 1028.2
20260507191503 52 212 0.9 3.5 0.00 0.00 0.00 75 1028.2
20260507191003 52 234 0.9 3.5 0.00 0.00 0.00 74 1028.2
20260507190504 52 229 0.9 2.6 0.00 0.00 0.00 73 1028.2
20260507190005 52 220 0.9 2.6 0.00 0.00 0.00 72 1028.2
20260507185504 52 240 0.9 3.5 0.00 0.00 0.00 71 1028.2
20260507185003 52 241 1.7 3.5 0.00 0.00 0.00 72 1028.2
20260507184504 52 236 1.7 3.5 0.00 0.00 0.00 72 1028.2
20260507184004 53 236 1.7 3.5 0.00 0.00 0.00 72 1028.2
20260507183503 53 240 1.7 4.3 0.00 0.00 0.00 72 1028.2
20260507183003 53 239 1.7 4.3 0.00 0.00 0.00 70 1028.2
20260507182711 54 233 1.7 3.5 0.00 0.00 0.00 69 1028.2
20260507182211 54 232 1.7 3.5 0.00 0.00 0.00 67 1028.2
20260507181711 54 236 1.7 5.2 0.00 0.00 0.00 65 1028.2
20260507181003 54 229 1.7 5.2 0.00 0.00 0.00 64 1028.2
20260507180503 55 227 1.7 4.3 0.00 0.00 0.00 63 1028.2
20260507175503 55 223 1.7 5.2 0.00 0.00 0.00 60 1028.2
20260507175003 56 209 1.7 5.2 0.00 0.00 0.00 57 1028.2
20260507174503 56 196 1.7 3.5 0.00 0.00 0.00 56 1028.2
20260507173211 56 188 1.7 4.3 0.00 0.00 0.00 55 1028.2
20260507172513 56 195 1.7 4.3 0.00 0.00 0.00 55 1028.2
20260507172013 56 192 1.7 5.2 0.00 0.00 0.00 54 1028.2
20260507171503 56 185 1.7 5.2 0.00 0.00 0.00 54 1028.2
20260507171003 57 185 1.7 4.3 0.00 0.00 0.00 53 1028.2
20260507170503 57 179 1.7 3.5 0.00 0.00 0.00 52 1028.2
20260507170211 57 180 1.7 3.5 0.00 0.00 0.00 51 1028.2
20260507165504 57 206 0.9 5.2 0.00 0.00 0.00 51 1028.2
20260507165210 57 211 1.7 5.2 0.00 0.00 0.00 51 1028.2
20260507164503 57 218 1.7 3.5 0.00 0.00 0.00 51 1028.2
20260507164003 57 203 0.9 3.5 0.00 0.00 0.00 51 1028.2
20260507163503 57 190 0.9 3.5 0.00 0.00 0.00 52 1028.2
20260507163003 57 188 0.9 3.5 0.00 0.00 0.00 52 1028.2
20260507162503 57 169 1.7 4.3 0.00 0.00 0.00 51 1028.2
20260507162003 58 160 1.7 4.3 0.00 0.00 0.00 51 1028.2
20260507161503 58 169 1.7 4.3 0.00 0.00 0.00 50 1028.2
20260507161004 58 189 1.7 4.3 0.00 0.00 0.00 51 1028.2
20260507160504 58 216 1.7 6.1 0.00 0.00 0.00 51 1028.2
20260507160211 58 204 1.7 6.1 0.00 0.00 0.00 51 1028.2
20260507155503 58 177 1.7 5.2 0.00 0.00 0.00 51 1028.2
20260507155003 59 188 2.6 7.0 0.00 0.00 0.00 50 1028.2
20260507154504 59 173 2.6 7.0 0.00 0.00 0.00 49 1028.2
20260507154003 59 178 1.7 6.1 0.00 0.00 0.00 50 1028.2
20260507153504 59 195 1.7 6.1 0.00 0.00 0.00 49 1028.2
20260507153003 59 175 1.7 6.1 0.00 0.00 0.00 50 1028.2
20260507152503 58 167 1.7 6.1 0.00 0.00 0.00 51 1028.2
20260507152003 59 185 1.7 5.2 0.00 0.00 0.00 50 1028.2
20260507151504 59 220 1.7 5.2 0.00 0.00 0.00 51 1028.2
20260507151003 59 227 1.7 5.2 0.00 0.00 0.00 51 1028.2
20260507150504 59 213 2.6 6.1 0.00 0.00 0.00 51 1028.2
20260507150211 59 200 2.6 6.1 0.00 0.00 0.00 50 1028.2
20260507145503 59 167 2.6 6.1 0.00 0.00 0.00 50 1028.2
20260507145003 59 177 1.7 5.2 0.00 0.00 0.00 51 1028.2
20260507144503 59 191 1.7 5.2 0.00 0.00 0.00 51 1028.2
20260507144003 59 213 2.6 6.1 0.00 0.00 0.00 51 1028.2
20260507143503 59 212 2.6 6.1 0.00 0.00 0.00 51 1028.2
20260507143211 59 206 2.6 6.1 0.00 0.00 0.00 50 1028.2
20260507142711 59 199 2.6 5.2 0.00 0.00 0.00 51 1028.2
20260507142003 59 191 1.7 5.2 0.00 0.00 0.00 50 1028.2
20260507141711 59 184 1.7 4.3 0.00 0.00 0.00 50 1028.2
20260507141003 59 210 2.6 6.1 0.00 0.00 0.00 50 1028.2
20260507140503 59 222 2.6 6.1 0.00 0.00 0.00 50 1028.2
20260507140004 59 216 2.6 5.2 0.00 0.00 0.00 49 1028.2
20260507135504 58 160 2.6 7.0 0.00 0.00 0.00 49 1028.2
20260507135003 58 155 2.6 7.0 0.00 0.00 0.00 50 1028.2
20260507134503 59 175 2.6 7.0 0.00 0.00 0.00 51 1028.2
20260507134003 58 164 2.6 7.0 0.00 0.00 0.00 51 1028.2
20260507133503 58 177 2.6 6.1 0.00 0.00 0.00 52 1028.2
20260507133004 58 160 2.6 6.1 0.00 0.00 0.00 52 1028.2
20260507132711 58 156 2.6 7.8 0.00 0.00 0.00 53 1028.2
20260507132004 58 195 2.6 7.8 0.00 0.00 0.00 54 1028.2
20260507131503 57 187 2.6 7.0 0.00 0.00 0.00 55 1028.2
20260507131004 57 155 2.6 6.1 0.00 0.00 0.00 55 1028.2
20260507130503 57 149 2.6 5.2 0.00 0.00 0.00 57 1028.2
20260507130004 57 176 1.7 5.2 0.00 0.00 0.00 56 1028.2
20260507125503 56 166 1.7 5.2 0.00 0.00 0.00 56 1028.2
20260507125004 56 140 2.6 7.8 0.00 0.00 0.00 58 1028.2
20260507124503 56 160 2.6 7.8 0.00 0.00 0.00 58 1028.2
20260507124003 56 185 2.6 7.8 0.00 0.00 0.00 59 1028.2
20260507123503 56 173 2.6 7.8 0.00 0.00 0.00 57 1028.2
20260507123003 56 176 2.6 7.8 0.00 0.00 0.00 60 1028.2
20260507122504 55 151 2.6 7.8 0.00 0.00 0.00 63 1028.2
20260507122004 55 132 2.6 7.8 0.00 0.00 0.00 65 1028.2
20260507121504 55 142 2.6 7.8 0.00 0.00 0.00 64 1028.2
20260507121004 55 144 2.6 7.0 0.00 0.00 0.00 65 1028.2
20260507120504 55 160 2.6 6.1 0.00 0.00 0.00 65 1028.2
20260507120004 55 203 2.6 6.1 0.00 0.00 0.00 64 1028.2
20260507115503 54 197 2.6 7.0 0.00 0.00 0.00 64 1028.2
20260507115003 54 166 2.6 7.0 0.00 0.00 0.00 65 1028.2
20260507114504 54 152 2.6 6.1 0.00 0.00 0.00 66 1028.2
20260507114003 53 169 2.6 6.1 0.00 0.00 0.00 66 1028.2
20260507113503 53 179 2.6 6.1 0.00 0.00 0.00 68 1028.2
20260507113004 53 155 1.7 6.1 0.00 0.00 0.00 68 1028.2
20260507112711 52 141 1.7 6.1 0.00 0.00 0.00 69 1028.2
20260507112004 52 140 2.6 6.1 0.00 0.00 0.00 71 1028.2
20260507111504 51 140 2.6 7.8 0.00 0.00 0.00 70 1028.2
20260507111210 51 140 2.6 7.8 0.00 0.00 0.00 70 1028.2
20260507110503 51 153 2.6 7.0 0.00 0.00 0.00 69 1028.2
20260507110211 51 149 2.6 6.1 0.00 0.00 0.00 70 1028.2
20260507105503 50 135 2.6 8.7 0.00 0.00 0.00 72 1028.2
20260507105004 50 140 2.6 8.7 0.00 0.00 0.00 73 1028.2
20260507104504 50 147 2.6 6.1 0.00 0.00 0.00 73 1028.2
20260507104003 50 145 2.6 6.1 0.00 0.00 0.00 74 1028.2
20260507103503 49 144 2.6 6.1 0.00 0.00 0.00 76 1028.2
20260507103003 49 135 3.5 7.8 0.00 0.00 0.00 77 1028.2
20260507102503 49 132 2.6 7.8 0.00 0.00 0.00 77 1028.2
20260507102003 49 136 2.6 7.8 0.00 0.00 0.00 77 1028.2
20260507101503 48 135 3.5 7.8 0.00 0.00 0.00 78 1028.2
20260507101003 48 134 3.5 7.8 0.00 0.00 0.00 79 1028.2
20260507100503 48 130 2.6 7.0 0.00 0.00 0.00 79 1028.2
20260507100211 48 132 2.6 7.0 0.00 0.00 0.00 79 1028.2
20260507095503 48 132 3.5 7.8 0.00 0.00 0.00 79 1028.2